Weather in Dubrovo

Russia / Perm Krai     56°59′54″N   54°32′59″E
temp.,
°C
wind,
m/s
gust,
m/s
humid.,
%
clouds,
%
prec.,
mm/h
press.,
hPa
HPBL,
m
25 february, thu
thu2523:00−26n33940 0.0 103244
02:00−28n22960 0.0 103219
05:00−29nw11970 0.0 103219
08:00−30w11970 0.0 103219
11:00−24sw12900 0.0 1032161
14:00−19ssw24800 0.0 1030411
17:00−18ssw35879 0.0 1029465
20:00−24s36971 0.0 102882
26 february, fri
fri2623:00−26sse38971 0.0 1027131
02:00−26sse4109525 0.0 1025193
05:00−26sse499258 0.0 1025231
08:00−26sse499697 0.0 1023226
11:00−23sse589598 0.1 1023321
14:00−18sse5892100 0.0 1021492
17:00−18sse5991100 0.1 1019502
20:00−19sse51194100 0.0 1016398
27 february, sat
sat2723:00−19sse51294100 0.1 1014381
02:00−18se71493100 0.0 1009467
05:00−15se81594100 0.3 1005599
08:00−13se71493100 1.3 1000711
11:00−11se71393100 2.9 999654
14:00−9ese71193100 0.8 998685
17:00−8e71192100 1.5 998547
20:00−10ene61194100 0.5 998405
28 february, sun
sun2823:00−11ene61094100 1.0 999347
02:00−13ene61094100 0.4 999318
05:00−13ne5994100 0.8 1000327
08:00−14ne5995100 0.4 1001331
11:00−13ne6993100 0.6 1002374
14:00−11ne5893100 0.2 1004418
17:00−11nne5992100 0.4 1006495
20:00−13nne51094100 0.3 1008424
1 march, mon
mon123:00−15nne599497 0.4 1011342
02:00−18nne499590 0.0 1013268
05:00−19nne499589 0.1 1015277
08:00−21nne389687 0.0 1017163
11:00−19nne479473 0.0 1019282
14:00−15nne358972 0.0 1019381
17:00−13n348983 0.0 1019393
20:00−19nnw119828 0.0 102020